Proserpine, Australia

7:59 AM AEST on July 25, 2017 (GMT +1000)
Whitsunday

Weather History for YBPN - April, 2014

Change the Weather History Date:

Thursday, April 3, 2014

  Actual Average Record
Temperature  
Mean Temperature 76 °F -  
Max Temperature 84 °F - - ()
Min Temperature 69 °F - - ()
Cooling Degree Days 12    
Growing Degree Days 26 (Base 50)    
Moisture  
Dew Point 69 °F    
Average Humidity 79    
Maximum Humidity 94    
Minimum Humidity 50    
Precipitation  
Precipitation 0.00 in - - ()
Sea Level Pressure  
Sea Level Pressure 29.92 in    
Wind  
Wind Speed 9 mph ()    
Max Wind Speed 17 mph    
Max Gust Speed -    
Visibility 6.7 miles    
Events      
T = Trace of Precipitation, MM = Missing Value Source: Averaged Metar Reports

Daily Weather History Graph

Daily Weather History Graph

Search for Another Location

Airport or City:

Trip Planner

Search our weather history database for the weather conditions in past years. The results will help you decide how hot, cold, wet, or windy it might be!

Date:

Astronomy

Apr. 03, 2014 Rise Set
Actual Time 6:13 AM AEST 6:04 PM AEST
Civil Twilight 5:51 AM AEST 6:26 PM AEST
Nautical Twilight 5:25 AM AEST 6:52 PM AEST
Astronomical Twilight 5:00 AM AEST 7:18 PM AEST
Moon 9:12 AM AEST (4/3) 8:42 PM AEST (4/3)
Length of Visible Light 12h 35m
Length of Day
11h 51m
Waxing Crescent, 13% of the Moon is Illuminated
Apr 3
Waxing Crescent
Apr 7
First Quarter
Apr 15
Full
Apr 22
Last Quarter
Apr 29
New

Hourly Weather History & Observations

Time (AEST) Temp. Heat Index Dew Point Humidity Pressure Visibility Wind Dir Wind Speed Gust Speed Precip Events Conditions
12:00 AM 72 °F - 69 °F 86% 29.94 in - South 8.1 mph - -  
12:00 AM 71.6 °F - 68.0 °F 88% 29.92 in 6.2 mi South 8.1 mph - N/A   Unknown
1:00 AM 71.6 °F - 68.0 °F 88% 29.92 in 6.2 mi South 9.2 mph - N/A   Unknown
2:00 AM 71.6 °F - 68.0 °F 88% 29.89 in 6.2 mi South 6.9 mph - N/A   Unknown
3:00 AM 71 °F - 68 °F 89% 29.90 in - South 8.1 mph - -  
3:00 AM 69.8 °F - 68.0 °F 94% 29.89 in 6.2 mi South 8.1 mph - N/A   Unknown
4:00 AM 69.8 °F - 68.0 °F 94% 29.89 in 6.2 mi South 5.8 mph - N/A   Scattered Clouds
5:00 AM 71.6 °F - 69.8 °F 94% 29.89 in 6.2 mi SE 3.5 mph - N/A   Overcast
6:00 AM 70 °F - 68 °F 91% 29.92 in - South 8.1 mph - -  
6:00 AM 69.8 °F - 68.0 °F 94% 29.92 in 6.2 mi South 6.9 mph - N/A   Unknown
7:00 AM 71.6 °F - 68.0 °F 88% 29.92 in 6.2 mi South 8.1 mph - N/A   Unknown
8:00 AM 77.0 °F - 69.8 °F 78% 29.95 in 6.2 mi South 12.7 mph - N/A   Unknown
9:00 AM 81 °F - 71 °F 66% 29.96 in 19 mi SE 16.1 mph - -   Partly Cloudy
9:00 AM 80.6 °F 83.9 °F 69.8 °F 70% 29.95 in 6.2 mi ESE 15.0 mph - N/A   Scattered Clouds
10:00 AM 82.4 °F 86.3 °F 69.8 °F 66% 29.95 in 6.2 mi ESE 17.3 mph - N/A   Scattered Clouds
11:00 AM 82.4 °F 86.3 °F 69.8 °F 66% 29.95 in 6.2 mi SE 17.3 mph - N/A   Scattered Clouds
12:00 PM 83 °F - 67 °F 50% 29.94 in - ESE 17.3 mph - -  
12:00 PM 82.4 °F 85.4 °F 68.0 °F 62% 29.95 in 6.2 mi ESE 17.3 mph - N/A   Unknown
1:00 PM 84.2 °F 87.3 °F 68.0 °F 58% 29.92 in 6.2 mi ESE 15.0 mph - N/A   Unknown
2:00 PM 82.4 °F 86.3 °F 69.8 °F 66% 29.89 in 6.2 mi ESE 17.3 mph - N/A   Unknown
3:00 PM 83 °F - 70 °F 57% 29.88 in - ESE 16.1 mph - -  
3:00 PM 82.4 °F 85.4 °F 68.0 °F 62% 29.89 in 6.2 mi ESE 16.1 mph - N/A   Unknown
4:00 PM 82.4 °F 87.2 °F 71.6 °F 70% 29.89 in 6.2 mi ESE 15.0 mph - N/A   Unknown
5:00 PM 78.8 °F - 71.6 °F 78% 29.89 in 6.2 mi ESE 16.1 mph - N/A   Unknown
6:00 PM 77 °F - 71 °F 77% 29.91 in - ESE 12.7 mph - -  
6:00 PM 77.0 °F - 71.6 °F 83% 29.92 in 6.2 mi ESE 12.7 mph - N/A   Unknown
7:00 PM 75.2 °F - 71.6 °F 89% 29.92 in 6.2 mi SE 9.2 mph - N/A   Unknown
8:00 PM 75.2 °F - 69.8 °F 83% 29.95 in 6.2 mi SSE 6.9 mph - N/A   Scattered Clouds
9:00 PM 74 °F - 69 °F 81% 29.96 in - South 8.1 mph - -  
9:00 PM 73.4 °F - 69.8 °F 88% 29.95 in 6.2 mi South 8.1 mph - N/A   Unknown
10:00 PM 73.4 °F - 69.8 °F 88% 29.95 in 6.2 mi South 9.2 mph - N/A   Unknown
11:00 PM 71.6 °F - 68.0 °F 88% 29.95 in 6.2 mi South 6.9 mph - N/A   Scattered Clouds